sat.trackr.live / text

‹ back to catalog

STARLINK-3242

NORAD 49727 · 2021-115D

PAYLOAD ACTIVE UNKNOWN

§ Identity

Operator
Country
US
Launch date
2021-12-02
Launch site
AFETR
Launch vehicle
Mass (kg)
RCS (m²)

Purposes: comms

External: N2YO · Heavens-Above · Gunter

§ Orbital elements

Epoch: 2026-05-24T19:20:49.557696Z

Period
95.44 min
Inclination
53.2131°
Eccentricity
0.0001020
Mean motion
15.08835799 rev/d
Perigee alt
539.1 km
Apogee alt
540.5 km
Semi-major
6,917.9 km
B*
3.4390e-5
RAAN
177.4231°
Arg perigee
76.3135°
Mean anomaly
283.7970°
Rev number
24,688

§ Raw data

STARLINK-32421 49727U 21115D   26144.80612914  .00000260  00000+0  34390-4 0  99972 49727  53.2131 177.4231 0001020  76.3135 283.7970 15.08835799246888

JSON: /api/v1/satellites/49727 · /tle

For live sub-satellite position, see the globe view (requires WebGL).

§ Visibility from observer

Set your observer location to see the next 7 days of passes ≥ 10°. The values pass through the URL so the page stays shareable.

No JS? Fill the form by hand. The geolocation button needs JavaScript.